Weather History for Meadow Lake, CO

Change the Weather History Date:

Tuesday, March 5, 2013

  Actual Average (KCOS) Record (KCOS)
Temperature  
Mean Temperature 19 °F 36 °F  
Max Temperature 33 °F 49 °F 70 °F (1925)
Min Temperature 5 °F 23 °F 3 °F (1969)
Degree Days  
Heating Degree Days 46 29  
Month to date heating degree days 147  
Since 1 July heating degree days 4710  
Cooling Degree Days 0 0  
Month to date cooling degree days 0  
Year to date cooling degree days 0  
Moisture  
Dew Point 15 °F    
Average Humidity 79    
Maximum Humidity 96    
Minimum Humidity 57    
Precipitation  
Precipitation 0.00 in 0.03 in 0.48 in (1943)
Month to date precipitation 0.13  
Year to date precipitation 0.79  
Snow  
Snow 0.00 in 0.30 in 5.20 in (1943)
Month to date snowfall 1.2  
Since 1 July snowfall 25.2  
Snow Depth -    
Sea Level Pressure  
Sea Level Pressure 30.19 in    
Wind  
Wind Speed 5 mph (SW)    
Max Wind Speed 12 mph    
Max Gust Speed -    
Visibility 10 miles    
Events Snow    
T = Trace of Precipitation, MM = Missing Value Source: NWS Daily Summary

Daily Weather History Graph

Daily Weather History Graph

Search for Another Location

Airport:

Trip Planner

Search our weather history database for the weather conditions in past years. The results will help you decide how hot, cold, wet, or windy it might be!

Date:

Astronomy

Mar. 05, 2013 Rise Set
Actual Time 6:24 AM MST 5:55 PM MST
Civil Twilight 5:57 AM MST 6:22 PM MST
Nautical Twilight 5:26 AM MST 6:53 PM MST
Astronomical Twilight 4:55 AM MST 7:24 PM MST
Moon 1:36 AM MST (3/5) 11:39 AM MST (3/5)
Length of Visible Light 12h 24m
Length of Day
11h 31m
Last Quarter, 40% of the Moon is Illuminated
Mar 5
Last Quarter
Mar 11
New
Mar 19
First Quarter
Mar 27
Full
Apr 2
Last Quarter

Hourly Weather History & Observations

Time (MST) Temp. Windchill Dew Point Humidity Pressure Visibility Wind Dir Wind Speed Gust Speed Precip Events Conditions
12:13 AM 9.5 °F 1.2 °F 6.8 °F 89% 30.18 in 10.0 mi WNW 4.6 mph - N/A   Scattered Clouds
12:33 AM 9.3 °F 2.8 °F 7.0 °F 90% 30.18 in 10.0 mi NW 3.5 mph - N/A   Mostly Cloudy
12:53 AM 8.6 °F 2.0 °F 7.0 °F 93% 30.18 in 10.0 mi WNW 3.5 mph - N/A   Mostly Cloudy
1:13 AM 6.4 °F -2.4 °F 4.5 °F 92% 30.18 in 7.0 mi West 4.6 mph - N/A Snow Light Snow
1:33 AM 9.9 °F 1.6 °F 9.0 °F 96% 30.18 in 5.0 mi SW 4.6 mph - N/A Snow Light Snow
1:53 AM 12.9 °F - 11.5 °F 94% 30.18 in 5.0 mi Calm Calm - N/A Snow Light Snow
2:13 AM 13.5 °F - 12.2 °F 95% 30.18 in 7.0 mi Calm Calm - N/A Snow Light Snow
2:33 AM 12.6 °F - 11.5 °F 95% 30.17 in 7.0 mi Calm Calm - N/A   Clear
2:53 AM 6.6 °F -0.3 °F 4.5 °F 91% 30.16 in 7.0 mi WSW 3.5 mph - N/A   Clear
3:13 AM 5.7 °F - 2.7 °F 87% 30.16 in 7.0 mi Calm Calm - N/A   Clear
3:33 AM 5.4 °F -3.6 °F 3.2 °F 91% 30.16 in 10.0 mi West 4.6 mph - N/A   Clear
3:53 AM 8.6 °F 0.1 °F 7.0 °F 93% 30.16 in 7.0 mi West 4.6 mph - N/A   Clear
4:13 AM 8.6 °F -1.3 °F 7.0 °F 93% 30.17 in 10.0 mi West 5.8 mph - N/A   Clear
4:33 AM 9.9 °F 0.2 °F 8.1 °F 92% 30.18 in 10.0 mi WSW 5.8 mph - N/A   Clear
4:53 AM 10.2 °F 0.6 °F 8.4 °F 92% 30.19 in 10.0 mi West 5.8 mph - N/A   Clear
5:13 AM 10.4 °F 4.0 °F 8.8 °F 93% 30.19 in 10.0 mi West 3.5 mph - N/A   Clear
5:33 AM 11.1 °F - 9.3 °F 92% 30.20 in 10.0 mi Calm Calm - N/A   Clear
6:33 AM 9.5 °F -2.6 °F 7.7 °F 92% 30.22 in 1.0 mi West 8.1 mph - N/A   Overcast
6:53 AM 12.0 °F 1.5 °F 10.0 °F 92% 30.22 in 10.0 mi West 6.9 mph - N/A   Scattered Clouds
7:13 AM 14.7 °F 7.3 °F 12.9 °F 93% 30.22 in 10.0 mi West 4.6 mph - N/A   Clear
7:33 AM 16.5 °F 6.9 °F 14.9 °F 93% 30.23 in 10.0 mi WSW 6.9 mph - N/A   Clear
7:53 AM 17.6 °F 8.2 °F 15.6 °F 92% 30.24 in 10.0 mi WSW 6.9 mph - N/A   Clear
8:13 AM 18.5 °F 8.4 °F 15.4 °F 88% 30.24 in 10.0 mi SW 8.1 mph - N/A   Clear
8:33 AM 19.9 °F 10.1 °F 15.3 °F 82% 30.25 in 10.0 mi SW 8.1 mph - N/A   Clear
8:53 AM 21.0 °F 11.4 °F 13.5 °F 73% 30.24 in 10.0 mi SSW 8.1 mph - N/A   Clear
9:13 AM 22.5 °F 11.7 °F 13.5 °F 68% 30.24 in 10.0 mi SSW 10.4 mph - N/A   Clear
9:33 AM 23.4 °F 15.2 °F 13.6 °F 66% 30.24 in 10.0 mi SSW 6.9 mph - N/A   Clear
9:53 AM 23.9 °F 15.8 °F 14.4 °F 67% 30.23 in 10.0 mi SSW 6.9 mph - N/A   Clear
10:13 AM 24.8 °F 16.1 °F 15.6 °F 68% 30.24 in 10.0 mi SSW 8.1 mph - N/A   Clear
10:33 AM 25.7 °F 18.0 °F 15.8 °F 66% 30.23 in 10.0 mi SSW 6.9 mph - N/A   Clear
10:53 AM 25.9 °F 16.6 °F 17.2 °F 70% 30.23 in 10.0 mi South 9.2 mph - N/A   Clear
11:13 AM 26.1 °F 16.2 °F 18.3 °F 73% 30.23 in 10.0 mi SSW 10.4 mph - N/A   Clear
11:33 AM 25.9 °F 16.0 °F 18.5 °F 74% 30.22 in 10.0 mi South 10.4 mph - N/A   Clear
11:53 AM 25.7 °F 15.7 °F 17.1 °F 70% 30.22 in 10.0 mi SSW 10.4 mph - N/A   Clear
12:13 PM 26.6 °F 17.5 °F 17.8 °F 69% 30.21 in 10.0 mi South 9.2 mph - N/A   Clear
12:33 PM 27.5 °F 19.3 °F 18.9 °F 70% 30.20 in 10.0 mi SSW 8.1 mph - N/A   Clear
12:53 PM 28.4 °F 19.7 °F 19.8 °F 70% 30.20 in 10.0 mi South 9.2 mph - N/A   Clear
1:13 PM 29.3 °F 22.3 °F 19.6 °F 67% 30.19 in 10.0 mi South 6.9 mph - N/A   Clear
1:33 PM 30.2 °F 23.4 °F 19.8 °F 65% 30.18 in 10.0 mi South 6.9 mph - N/A   Clear
1:53 PM 30.9 °F 24.3 °F 20.3 °F 65% 30.18 in 10.0 mi SSW 6.9 mph - N/A   Clear
2:13 PM 32.0 °F 25.6 °F 20.7 °F 63% 30.17 in 10.0 mi SSW 6.9 mph - N/A   Clear
2:33 PM 32.7 °F 25.0 °F 21.6 °F 64% 30.18 in 10.0 mi SSW 9.2 mph - N/A   Clear
2:53 PM 32.4 °F 24.6 °F 20.7 °F 62% 30.18 in 10.0 mi South 9.2 mph - N/A   Clear
3:13 PM 32.7 °F 25.0 °F 18.9 °F 57% 30.18 in 10.0 mi SSW 9.2 mph - N/A   Clear
3:33 PM 32.9 °F 25.3 °F 20.3 °F 60% 30.18 in 10.0 mi SSW 9.2 mph - N/A   Clear
3:53 PM 32.9 °F 25.3 °F 21.0 °F 62% 30.18 in 10.0 mi SSW 9.2 mph - N/A   Clear
4:13 PM 32.9 °F 25.9 °F 20.8 °F 61% 30.18 in 10.0 mi SSW 8.1 mph - N/A   Clear
4:33 PM 33.1 °F 26.1 °F 21.0 °F 61% 30.18 in 10.0 mi SSW 8.1 mph - N/A   Clear
4:53 PM 32.2 °F 25.0 °F 21.4 °F 64% 30.17 in 10.0 mi SSW 8.1 mph - N/A   Clear
5:13 PM 31.5 °F 22.3 °F 20.7 °F 64% 30.17 in 10.0 mi SSW 11.5 mph - N/A   Clear
5:33 PM 29.3 °F 20.8 °F 20.3 °F 69% 30.17 in 10.0 mi South 9.2 mph - N/A   Clear
5:53 PM 27.3 °F 19.9 °F 20.3 °F 75% 30.17 in 10.0 mi SSW 6.9 mph - N/A   Clear
6:13 PM 26.1 °F 19.4 °F 20.1 °F 78% 30.18 in 10.0 mi SSW 5.8 mph - N/A   Clear
6:33 PM 25.7 °F 17.1 °F 19.4 °F 77% 30.18 in 10.0 mi SSW 8.1 mph - N/A   Clear
6:53 PM 24.8 °F 19.1 °F 19.2 °F 79% 30.18 in 10.0 mi SW 4.6 mph - N/A   Clear
7:13 PM 23.4 °F 18.9 °F 19.0 °F 84% 30.18 in 10.0 mi SW 3.5 mph - N/A   Clear
7:33 PM 23.0 °F 14.7 °F 19.0 °F 85% 30.18 in 10.0 mi WSW 6.9 mph - N/A   Clear
7:53 PM 22.8 °F 14.5 °F 18.9 °F 85% 30.18 in 10.0 mi SW 6.9 mph - N/A   Clear
8:13 PM 23.0 °F 15.8 °F 18.5 °F 83% 30.18 in 10.0 mi SW 5.8 mph - N/A   Clear
8:33 PM 23.0 °F 15.8 °F 18.9 °F 84% 30.18 in 10.0 mi SW 5.8 mph - N/A   Clear
8:53 PM 23.2 °F 17.2 °F 18.9 °F 84% 30.18 in 10.0 mi WSW 4.6 mph - N/A   Clear
9:13 PM 23.5 °F 19.1 °F 19.0 °F 83% 30.17 in 10.0 mi SW 3.5 mph - N/A   Clear
9:33 PM 23.7 °F 17.8 °F 18.5 °F 80% 30.17 in 10.0 mi WSW 4.6 mph - N/A   Clear
9:53 PM 21.9 °F 15.7 °F 18.0 °F 85% 30.17 in 10.0 mi WSW 4.6 mph - N/A   Clear
10:13 PM 21.6 °F 14.0 °F 17.4 °F 84% 30.16 in 10.0 mi West 5.8 mph - N/A   Clear
10:33 PM 21.0 °F 14.6 °F 17.2 °F 85% 30.16 in 10.0 mi West 4.6 mph - N/A   Clear
10:53 PM 21.0 °F 14.6 °F 17.6 °F 87% 30.15 in 10.0 mi West 4.6 mph - N/A   Clear
11:13 PM 21.0 °F 14.6 °F 17.1 °F 85% 30.14 in 10.0 mi West 4.6 mph - N/A   Clear
11:33 PM 21.0 °F 12.4 °F 17.2 °F 85% 30.13 in 10.0 mi West 6.9 mph - N/A   Clear
11:53 PM 21.9 °F 15.7 °F 17.4 °F 83% 30.12 in 10.0 mi WNW 4.6 mph - N/A   Clear